This demonstration page uses our WeatherBlox Daily Observations layout. Learn more.

Left ArrowRight Arrow

41.55636, -103.73856

Hourly Observations for September 25, 2021

Temp ( °F °C ) Dew Point ( °F °C ) Humidity (%) Winds ( mph kmh ) Pressure ( in mb ) Visibility ( mi km ) Precip ( " mm )
12:58 am 00:58 Clear 53 11.7 36 2.1 52 52 WSW 6 9 30.12 1020 10 16 N/A
1:58 am 01:58 Clear 55 12.8 35 1.6 47 47 SSW 22 35 30.07 1018 10 16 N/A
2:58 am 02:58 Clear 53 11.9 35 1.9 51 51 SSW 28 44 30.05 1018 10 16 N/A
3:58 am 03:58 Clear 50 9.8 35 1.9 58 58 WNW 8 13 30.07 1018 10 16 N/A
4:58 am 04:58 Clear 49 9.2 35 1.9 61 61 SW 13 20 30.07 1018 10 16 N/A
5:58 am 05:58 Clear 48 8.9 36 2 62 62 SSW 12 19 30.07 1018 10 16 N/A
6:58 am 06:58 Sunny 49 9.4 36 2.4 62 62 W 8 13 30.08 1019 10 16 N/A
7:58 am 07:58 Sunny 49 9.6 37 2.6 62 62 W 5 7 30.09 1019 10 16 N/A
8:58 am 08:58 Sunny 60 15.7 35 1.5 38 38 W 5 7 30.07 1018 10 16 N/A
9:58 am 09:58 Sunny 68 20 34 1 28 28 W 5 7 30.05 1018 10 16 N/A
10:58 am 10:58 Sunny 75 24.1 28 -2.3 17 17 WNW 6 9 30.01 1016 10 16 N/A
11:58 am 11:58 Sunny 80 26.7 24 -4.7 12 12 W 5 7 29.98 1015 10 16 N/A
12:58 pm 12:58 Sunny 84 28.8 24 -4.5 11 11 SW 9 15 29.94 1014 10 16 N/A
1:58 pm 13:58 Sunny 85 29.2 23 -4.9 10 10 W 14 22 29.89 1012 10 16 N/A
2:58 pm 14:58 Sunny 86 30.1 22 -5.5 9 9 SSW 7 11 29.87 1012 10 16 N/A
3:58 pm 15:58 Sunny 87 30.5 22 -5.7 9 9 W 6 9 29.85 1011 10 16 N/A
4:58 pm 16:58 Sunny 86 30.2 22 -5.3 9 9 NW 6 9 29.83 1010 10 16 N/A
5:58 pm 17:58 Sunny 83 28.6 24 -4.7 11 11 SSW 10 17 29.84 1010 10 16 N/A
6:58 pm 18:58 Clear 74 23.3 24 -4.6 15 15 SSW 8 13 29.86 1011 10 16 N/A
7:58 pm 19:58 Clear 66 18.9 26 -3.5 22 22 SSW 16 26 29.88 1012 10 16 N/A
8:58 pm 20:58 Clear 71 21.5 24 -4.4 17 17 SSW 17 28 29.85 1011 10 16 N/A
9:58 pm 21:58 Clear 66 19.1 24 -4.2 20 20 SSW 15 24 29.84 1010 10 16 N/A
10:58 pm 22:58 Clear 67 19.3 24 -4.3 20 20 SSW 17 28 29.83 1010 10 16 N/A
11:58 pm 23:58 Clear 66 19 24 -4.3 20 20 SSW 17 28 29.81 1009 10 16 N/A

Powered by AerisWeather